Home > Time Zones > World Clock > Weather > Russia > Ufa > Past weeks

Flag for Russia Weather past 2 weeks in Ufa, Russia

32 °F

Snow showers. Low clouds.

Feels Like: 21 °F
Forecast: 28 / 33 °F
Wind: 17 mph from South

Location: Ufa

Current Time: Oct 10, 2015 at 8:06:09 PM

Latest Report: Oct 10, 2015 at 7:30 PM

Visibility: 1 mi

Pressure: 29.77 "Hg

Humidity: 87%

Dew point: 28 °F

Location of UfaLocation

Historic Weather in Ufa — Graph


Ufa temperature yesterday

Maximum temperature yesterday: 34 °F (at 11:30 AM)
Minimum temperature yesterday: 30 °F (at 12:00 AM)
Average temperature yesterday: 32 °F

Past Weeks' High & Low Weather Summary

High77 °F (Sep 27, 3:30 PM)100% (Sep 25, 11:30 PM)30.39 "Hg (Sep 25, 11:30 PM)
Low30 °F (Oct 5, 3:30 AM)17% (Sep 30, 3:30 PM)29.06 "Hg (Oct 3, 3:30 PM)
Average48 °F70%29.93 "Hg
* Reported Sep 25 6:00 PM — Oct 10 6:30 PM, Ufa, Weather by CustomWeather, © 2015

Note: Actual official high and low records may vary slightly from our data, if they occured in-between our weather recording intervals... More about our weather records


Ufa weather history for previous 24 hours

Time TempWeatherWind HumidityBarometerVisibility
6:30 PM
Sat, Oct 10
32 °FSnow flurries. Low clouds.10 mph87%29.77 "Hg2 mi
6:00 PM32 °FOvercast.13 mph87%29.77 "HgN/A
5:30 PM32 °FSnow flurries. Overcast.15 mph93%29.77 "Hg2 mi
5:00 PM30 °FSnow flurries. Overcast.13 mph100%29.77 "HgN/A
4:30 PM36 °FMore clouds than sun.10 mph70%29.74 "HgN/A
3:30 PM37 °FSnow flurries. Broken clouds.15 mph60%29.74 "Hg2 mi
3:00 PM37 °FBroken clouds.15 mph70%29.77 "HgN/A
2:30 PM36 °FSnow flurries. Broken clouds.20 mph70%29.77 "HgN/A
2:00 PM36 °FSnow flurries. Broken clouds.15 mph70%29.77 "HgN/A
1:30 PM36 °FPartly sunny.22 mph65%29.77 "HgN/A
1:00 PM37 °FPartly sunny.24 mph56%29.77 "HgN/A
12:30 PM37 °FPartly sunny.24 mph56%29.77 "HgN/A
12:00 PM36 °FPartly sunny.22 mph65%29.77 "HgN/A
11:30 AM36 °FPartly sunny.17 mph70%29.77 "HgN/A
11:00 AM34 °FPartly sunny.20 mph75%29.77 "HgN/A
10:30 AM34 °FPartly sunny.20 mph75%29.77 "HgN/A
10:00 AM32 °FPartly sunny.15 mph80%29.77 "HgN/A
9:30 AM32 °FPassing clouds.15 mph87%29.80 "HgN/A
9:00 AM32 °FSnow flurries. Passing clouds.15 mph87%29.80 "Hg2 mi
8:30 AM32 °FSnow flurries. Passing clouds.15 mph80%29.77 "Hg1 mi
8:00 AM30 °FPassing clouds.10 mph86%29.80 "HgN/A
7:30 AM32 °FLight snow. Overcast.13 mph80%29.80 "HgN/A
7:00 AM32 °FPassing clouds.17 mph75%29.80 "HgN/A
6:30 AM32 °FPassing clouds.17 mph75%29.80 "HgN/A
6:00 AM32 °FPassing clouds.17 mph75%29.80 "HgN/A
5:30 AM32 °FPassing clouds.20 mph75%29.80 "HgN/A
5:00 AM32 °FPassing clouds.17 mph75%29.80 "HgN/A
4:30 AM32 °FPassing clouds.17 mph75%29.80 "HgN/A
4:00 AM32 °FPassing clouds.17 mph75%29.80 "HgN/A
3:30 AM32 °FPassing clouds.17 mph75%29.80 "HgN/A
3:00 AM32 °FPassing clouds.15 mph75%29.80 "HgN/A
2:00 AM32 °FPassing clouds.17 mph75%29.80 "HgN/A
1:30 AM32 °FPassing clouds.20 mph69%29.80 "HgN/A
1:00 AM30 °FPassing clouds.20 mph75%29.80 "HgN/A
12:30 AM30 °FPassing clouds.17 mph75%29.80 "HgN/A
12:00 AM32 °FPassing clouds.17 mph69%29.80 "HgN/A
11:30 PM
Fri, Oct 9
32 °FPassing clouds.17 mph69%29.80 "HgN/A
11:00 PM34 °FPassing clouds.20 mph60%29.80 "HgN/A
10:30 PM32 °FPassing clouds.13 mph69%29.80 "HgN/A
10:00 PM30 °FPassing clouds.13 mph75%29.80 "HgN/A
9:30 PM30 °FPassing clouds.13 mph75%29.80 "HgN/A
9:00 PM30 °FPassing clouds.10 mph69%29.80 "HgN/A
8:30 PM30 °FPartly sunny.10 mph75%29.80 "HgN/A
Weather by CustomWeather, © 2015

See weather overviewHow to use our weather pages